Weather History for K2G4 - January, 2014

Change the Weather History Date:

Saturday, January 18, 2014

  Actual Average (KMGW) Record (KMGW)
Temperature  
Mean Temperature 12 °F 31 °F  
Max Temperature 19 °F 39 °F 68 °F (1996)
Min Temperature 6 °F 24 °F -13 °F (1994)
Degree Days  
Heating Degree Days 52 34  
Month to date heating degree days 609  
Since 1 July heating degree days 2593  
Cooling Degree Days 0 0  
Month to date cooling degree days 0  
Year to date cooling degree days 0  
Moisture  
Dew Point 6 °F    
Average Humidity 80    
Maximum Humidity 100    
Minimum Humidity 67    
Precipitation  
Precipitation 0.00 in 0.09 in 0.50 in (2004)
Month to date precipitation 1.62  
Year to date precipitation 1.62  
Sea Level Pressure  
Sea Level Pressure 29.78 in    
Wind  
Wind Speed 10 mph (West)    
Max Wind Speed 16 mph    
Max Gust Speed 28 mph    
Visibility 5 miles    
Events      
T = Trace of Precipitation, MM = Missing Value Source: NWS Daily Summary

Daily Weather History Graph

Daily Weather History Graph

Search for Another Location

Airport or City:

Trip Planner

Search our weather history database for the weather conditions in past years. The results will help you decide how hot, cold, wet, or windy it might be!

Date:

Astronomy

Jan. 18, 2014 Rise Set
Actual Time 7:34 AM EST 5:21 PM EST
Civil Twilight 7:05 AM EST 5:50 PM EST
Nautical Twilight 6:32 AM EST 6:23 PM EST
Astronomical Twilight 6:00 AM EST 6:55 PM EST
Moon 8:00 PM EST (1/18) 8:34 AM EST (1/18)
Length of Visible Light 10h 44m
Length of Day
9h 46m
Waning Gibbous, 94% of the Moon is Illuminated
Jan 18
Waning Gibbous
Jan 24
Last Quarter
Jan 30
New
Feb 6
First Quarter
Feb 14
Full

Hourly Weather History & Observations

Time (EST) Temp. Windchill Dew Point Humidity Pressure Visibility Wind Dir Wind Speed Gust Speed Precip Events Conditions
12:15 AM 19.4 °F 7.9 °F 19.4 °F 100% 29.78 in 3.0 mi West 10.4 mph 16.1 mph N/A   Overcast
12:35 AM 19.4 °F 8.6 °F 17.6 °F 93% 29.78 in 4.0 mi WSW 9.2 mph 19.6 mph N/A   Overcast
12:55 AM 17.6 °F 6.4 °F 17.6 °F 100% 29.77 in 3.0 mi West 9.2 mph 16.1 mph N/A   Overcast
1:15 AM 17.6 °F 5.0 °F 17.6 °F 100% 29.76 in 1.5 mi West 11.5 mph 16.1 mph N/A   Overcast
1:35 AM 17.6 °F 6.4 °F 17.6 °F 100% 29.77 in 2.5 mi West 9.2 mph 16.1 mph N/A   Overcast
1:55 AM 15.8 °F 3.4 °F 14.0 °F 93% 29.78 in 2.5 mi West 10.4 mph 18.4 mph N/A   Overcast
2:15 AM 15.8 °F 3.4 °F 12.2 °F 86% 29.77 in 4.0 mi West 10.4 mph 18.4 mph N/A   Overcast
2:35 AM 14.0 °F 2.0 °F 10.4 °F 86% 29.77 in 10.0 mi West 9.2 mph 17.3 mph N/A   Mostly Cloudy
2:55 AM 14.0 °F 5.1 °F 12.2 °F 93% 29.76 in 10.0 mi West 5.8 mph - N/A   Mostly Cloudy
3:15 AM 14.0 °F 2.9 °F 12.2 °F 93% 29.76 in 1.5 mi West 8.1 mph 16.1 mph N/A   Overcast
3:35 AM 12.2 °F -0.2 °F 10.4 °F 92% 29.76 in 2.0 mi West 9.2 mph 17.3 mph N/A   Overcast
3:55 AM 12.2 °F -1.0 °F 10.4 °F 92% 29.76 in 2.0 mi West 10.4 mph - N/A   Overcast
4:15 AM 12.2 °F -1.0 °F 6.8 °F 79% 29.75 in 10.0 mi West 10.4 mph 19.6 mph N/A   Overcast
4:35 AM 12.2 °F 0.7 °F 8.6 °F 85% 29.75 in 1.2 mi WNW 8.1 mph - N/A   Overcast
4:55 AM 10.4 °F -4.1 °F 5.0 °F 79% 29.75 in 4.0 mi West 11.5 mph 21.9 mph N/A   Haze
5:15 AM 10.4 °F -4.1 °F 5.0 °F 79% 29.75 in 7.0 mi West 11.5 mph 21.9 mph N/A   Overcast
5:30 AM 10.4 °F -6.6 °F 5.0 °F 79% 29.75 in 5.0 mi West 16.1 mph 27.6 mph N/A   Haze
5:55 AM 8.6 °F -7.0 °F 5.0 °F 85% 29.76 in 2.0 mi West 12.7 mph 18.4 mph N/A   Overcast
6:15 AM 8.6 °F -7.0 °F 3.2 °F 79% 29.76 in 7.0 mi West 12.7 mph 19.6 mph N/A   Overcast
6:35 AM 8.6 °F -3.7 °F 1.4 °F 73% 29.76 in 10.0 mi West 8.1 mph 23.0 mph N/A   Overcast
6:55 AM 8.6 °F -5.5 °F 1.4 °F 73% 29.77 in 10.0 mi West 10.4 mph 21.9 mph N/A   Overcast
7:15 AM 6.8 °F -8.6 °F 1.4 °F 79% 29.77 in 7.0 mi West 11.5 mph 18.4 mph N/A   Overcast
7:35 AM 6.8 °F -9.3 °F 1.4 °F 79% 29.77 in 4.0 mi West 12.7 mph 18.4 mph N/A   Haze
7:55 AM 6.8 °F -6.9 °F 1.4 °F 79% 29.77 in 2.0 mi West 9.2 mph 16.1 mph N/A   Haze
8:15 AM 6.8 °F -4.8 °F 3.2 °F 85% 29.78 in 1.0 mi West 6.9 mph - N/A   Overcast
8:35 AM 6.8 °F -9.3 °F 3.2 °F 85% 29.78 in 0.8 mi West 12.7 mph 18.4 mph N/A   Overcast
8:55 AM 6.8 °F -8.6 °F 3.2 °F 85% 29.78 in 0.8 mi West 11.5 mph 19.6 mph N/A   Overcast
9:15 AM 6.8 °F -5.9 °F 3.2 °F 85% 29.79 in 0.8 mi West 8.1 mph 18.4 mph N/A   Overcast
9:35 AM 8.6 °F -4.7 °F 3.2 °F 79% 29.79 in 0.8 mi West 9.2 mph - N/A   Haze
9:55 AM 8.6 °F -7.7 °F 3.2 °F 79% 29.80 in 1.0 mi West 13.8 mph 19.6 mph N/A   Haze
10:15 AM 8.6 °F -7.0 °F 1.4 °F 73% 29.81 in 1.5 mi West 12.7 mph 18.4 mph N/A   Haze
10:35 AM 8.6 °F -8.9 °F 1.4 °F 73% 29.81 in 2.0 mi West 16.1 mph 21.9 mph N/A   Haze
10:55 AM 8.6 °F -3.7 °F 1.4 °F 73% 29.81 in 1.5 mi West 8.1 mph 19.6 mph N/A   Haze
11:15 AM 10.4 °F -3.3 °F 1.4 °F 67% 29.80 in 1.2 mi West 10.4 mph 17.3 mph N/A   Haze
11:35 AM 8.6 °F -5.5 °F 1.4 °F 73% 29.79 in 1.0 mi West 10.4 mph 16.1 mph N/A   Haze
11:55 AM 10.4 °F -3.3 °F 3.2 °F 73% 29.79 in 1.0 mi West 10.4 mph 19.6 mph N/A   Haze
12:15 PM 10.4 °F -4.1 °F 1.4 °F 67% 29.78 in 3.0 mi West 11.5 mph 18.4 mph N/A   Haze
12:35 PM 10.4 °F -5.4 °F 1.4 °F 67% 29.78 in 5.0 mi West 13.8 mph 20.7 mph N/A   Haze
12:55 PM 10.4 °F -3.3 °F 1.4 °F 67% 29.79 in 2.5 mi West 10.4 mph 20.7 mph N/A   Haze
1:15 PM 10.4 °F -3.3 °F 3.2 °F 73% 29.78 in 2.5 mi West 10.4 mph 23.0 mph N/A   Haze
1:35 PM 10.4 °F -5.4 °F 3.2 °F 73% 29.79 in 3.0 mi West 13.8 mph 20.7 mph N/A   Haze
1:55 PM 10.4 °F -2.4 °F 1.4 °F 67% 29.78 in 4.0 mi West 9.2 mph 21.9 mph N/A   Haze
2:15 PM 12.2 °F -0.2 °F 3.2 °F 67% 29.78 in 4.0 mi WNW 9.2 mph 17.3 mph N/A   Haze
2:35 PM 10.4 °F -2.4 °F 1.4 °F 67% 29.79 in 5.0 mi West 9.2 mph 19.6 mph N/A   Haze
2:55 PM 10.4 °F -1.5 °F 3.2 °F 73% 29.79 in 5.0 mi West 8.1 mph - N/A   Haze
3:15 PM 10.4 °F -2.4 °F 3.2 °F 73% 29.79 in 2.0 mi West 9.2 mph - N/A   Haze
3:35 PM 10.4 °F -1.5 °F 3.2 °F 73% 29.79 in 5.0 mi West 8.1 mph 18.4 mph N/A   Haze
3:55 PM 10.4 °F -1.5 °F 3.2 °F 73% 29.80 in 4.0 mi WSW 8.1 mph - N/A   Haze
4:15 PM 10.4 °F -1.5 °F 3.2 °F 73% 29.81 in 3.0 mi West 8.1 mph 16.1 mph N/A   Haze
4:35 PM 10.4 °F -2.4 °F 3.2 °F 73% 29.80 in 5.0 mi WSW 9.2 mph - N/A   Haze
4:55 PM 10.4 °F -0.4 °F 3.2 °F 73% 29.80 in 5.0 mi West 6.9 mph - N/A   Haze
5:15 PM 10.4 °F -0.4 °F 3.2 °F 73% 29.79 in 7.0 mi West 6.9 mph - N/A   Overcast
5:35 PM 10.4 °F -1.5 °F 3.2 °F 73% 29.79 in 10.0 mi WSW 8.1 mph - N/A   Overcast
5:55 PM 10.4 °F 0.8 °F 3.2 °F 73% 29.80 in 10.0 mi West 5.8 mph - N/A   Overcast
6:15 PM 10.4 °F -0.4 °F 3.2 °F 73% 29.80 in 10.0 mi WSW 6.9 mph - N/A   Overcast
6:35 PM 10.4 °F 2.2 °F 5.0 °F 79% 29.79 in 10.0 mi WSW 4.6 mph - N/A   Overcast
6:55 PM 10.4 °F 2.2 °F 5.0 °F 79% 29.79 in 10.0 mi WSW 4.6 mph - N/A   Overcast
7:15 PM 8.6 °F - 5.0 °F 85% 29.77 in 10.0 mi Calm Calm - N/A   Mostly Cloudy
7:35 PM 8.6 °F 0.1 °F 5.0 °F 85% 29.77 in 10.0 mi SW 4.6 mph - N/A   Clear
7:55 PM 8.6 °F -1.3 °F 5.0 °F 85% 29.77 in 10.0 mi SW 5.8 mph - N/A   Clear
8:15 PM 8.6 °F -1.3 °F 5.0 °F 85% 29.77 in 10.0 mi SW 5.8 mph - N/A   Clear
8:35 PM 10.4 °F -1.5 °F 6.8 °F 85% 29.77 in 10.0 mi SW 8.1 mph - N/A   Clear
8:55 PM 10.4 °F -0.4 °F 6.8 °F 85% 29.76 in 10.0 mi SW 6.9 mph - N/A   Clear
9:15 PM 10.4 °F -2.4 °F 6.8 °F 85% 29.77 in 10.0 mi WSW 9.2 mph - N/A   Scattered Clouds
9:35 PM 12.2 °F -1.0 °F 6.8 °F 79% 29.77 in 10.0 mi SW 10.4 mph - N/A   Mostly Cloudy
9:55 PM 12.2 °F -1.8 °F 6.8 °F 79% 29.77 in 10.0 mi SW 11.5 mph 16.1 mph N/A   Overcast
10:15 PM 12.2 °F 0.7 °F 6.8 °F 79% 29.76 in 10.0 mi SW 8.1 mph 16.1 mph N/A   Overcast
10:35 PM 14.0 °F 2.0 °F 8.6 °F 79% 29.76 in 3.0 mi SW 9.2 mph - N/A   Haze
10:55 PM 14.0 °F 2.0 °F 8.6 °F 79% 29.74 in 4.0 mi SSW 9.2 mph - N/A   Haze
11:15 PM 14.0 °F 2.9 °F 10.4 °F 86% 29.74 in 3.0 mi SW 8.1 mph - N/A   Overcast
11:35 PM 14.0 °F 3.9 °F 10.4 °F 86% 29.73 in 5.0 mi SW 6.9 mph - N/A   Overcast
11:55 PM 14.0 °F 2.9 °F 10.4 °F 86% 29.72 in 2.0 mi SSW 8.1 mph - N/A   Overcast